[[{"header":{"parameterUnit":"m.s-1","parameterCategory":1,"la1":30.2991,"la2":30.254,"lo1":-89.0895,"lo2":-89.0444,"dy":0.0017,"dx":0.0017,"nx":28,"ny":28,"refTime":"2024-12-09T03:00:00:Z","depth":0,"parameterNumber":2,"parameterNumberName":"U-component_of_WINDS"},"data":[0,0,0,0,0,0,0,0,0,0,0,0,0,0,0,0,0,0,0,0,0,0,0,0,0,0,0,0,0,0,0,0,0,0,0,0,0,0,0,0,0,0,0,0,0,0,0,0,0,0,0,0,0,0,0,0,0,0,1.0794,1.0794,0,1.0815,1.0815,1.0816,1.0806,1.0805,1.0805,1.0804,1.0827,1.0828,1.0829,0,0,0,0,0,0,0,0,0,0,0,0,0,1.075,1.0751,1.0794,1.0795,1.0795,1.0815,1.0815,1.0816,1.0806,1.0805,1.0805,1.0804,1.0827,1.0828,1.0829,0,0,0,0,0,0,0,0,0,0,0,0,0,1.077,1.0751,1.0794,1.0792,1.0792,1.0815,1.0815,1.0816,1.0806,1.0805,1.0804,1.0804,1.0826,1.0828,1.083,1.0856,0,0,1.0835,1.0835,0,0,0,0,0,0,0,0,1.0769,1.0772,1.0792,1.0792,1.0793,1.0807,1.0808,1.0829,1.0806,1.0801,1.0804,1.0803,1.0821,1.0823,1.0829,1.0857,1.0858,1.0835,1.0836,1.0837,1.0837,0,0,0,0,0,0,0,1.0768,1.0771,1.0803,1.0793,1.0793,1.0792,1.0794,1.0812,1.0815,1.0801,1.0801,1.0803,1.0821,1.0827,1.0829,1.0858,1.0835,1.0836,1.0837,1.0838,1.0914,1.0915,0,0,0,0,0,0,1.0766,1.077,1.0802,1.0803,1.0779,1.0793,1.0795,1.0803,1.0815,1.0816,1.0804,1.0803,1.0825,1.0828,1.083,1.0865,1.0837,1.0838,1.0839,1.0913,1.0914,1.0915,0,0,0,0,0,0,1.0765,1.0769,1.0801,1.0786,1.079,1.0795,1.0804,1.0804,1.081,1.0817,1.0818,1.0809,1.0824,1.0828,1.0851,1.0865,1.0839,1.084,1.0912,1.0913,1.0915,1.0932,0,0,0,0,0,0,1.0764,1.0769,1.0777,1.0787,1.0791,1.082,1.0805,1.0805,1.0813,1.0812,1.0822,1.0823,1.0824,1.0848,1.0852,1.0867,1.0842,1.0911,1.0913,1.0914,1.0931,1.0934,1.0938,0,0,0,0,0,1.0762,1.0781,1.0778,1.0782,1.0802,1.082,1.0823,1.0823,1.0814,1.0824,1.0829,1.0823,1.0863,1.0851,1.0855,1.0871,1.091,1.0912,1.0914,1.0929,1.0934,1.0938,0,0,0,0,0,0,1.0772,1.0782,1.0778,1.08,1.081,1.0819,1.0831,1.0827,1.084,1.0838,1.0838,1.0841,1.0865,1.087,1.0856,1.0899,1.0885,1.0889,1.0895,1.0899,1.0903,1.0902,1.0843,0,0,0,0,0,1.0777,1.079,1.0798,1.0817,1.0822,1.0826,1.0834,1.0833,1.0843,1.0847,1.0854,1.0864,1.088,1.089,1.0904,1.0931,1.0936,1.0945,1.0948,1.0951,1.0954,1.0974,1.0979,1.0923,1.0923,1.0923,0,0,1.0787,1.0794,1.0802,1.0819,1.0826,1.0842,1.0829,1.0845,1.0857,1.085,1.0872,1.0878,1.089,1.0916,1.0928,1.0921,1.0971,1.0954,1.0956,1.0958,1.0976,1.0982,1.0987,1.0925,1.0924,1.0924,0,0,1.0814,1.0819,1.0837,1.0845,1.0857,1.086,1.0864,1.0875,1.0878,1.0901,1.0897,1.0912,1.0938,1.0948,1.0956,1.0992,1.0988,1.0996,1.1015,1.1034,1.1038,1.1042,1.1058,1.1063,1.0999,1.0999,1.0999,0,1.0825,1.0847,1.0846,1.0864,1.0873,1.0868,1.0888,1.0896,1.0912,1.0919,1.0911,1.0946,1.0953,1.0984,1.0993,1.0999,1.1007,1.0995,1.1037,1.1041,1.1045,1.106,1.1065,1.1,1.1,1.1,1.1,0,1.0861,1.0877,1.089,1.0907,1.0918,1.0936,1.0941,1.0952,1.0952,1.0956,1.0982,1.0991,1.1009,1.1016,1.1015,1.1048,1.1044,1.1037,1.1023,1.1051,1.1066,1.1071,1.1002,1.1002,1.1001,1.1001,0,0,1.0892,1.0911,1.0916,1.0925,1.094,1.0953,1.0973,1.0991,1.1002,1.1014,1.1033,1.1057,1.1051,1.1061,1.1062,1.1078,1.111,1.1069,1.107,1.1079,1.1151,1.1157,1.1164,1.1107,1.1108,1.1109,1.1151,0,1.0922,1.0956,1.0958,1.099,1.1007,1.1004,1.1022,1.1034,1.104,1.1057,1.1064,1.1082,1.1072,1.1078,1.1094,1.1102,1.1124,1.1099,1.1127,1.1128,1.1125,1.117,1.1177,1.1215,1.1156,1.1157,1.1157,0,1.0959,1.0974,1.1008,1.1024,1.1031,1.1047,1.1066,1.1081,1.1096,1.11,1.1113,1.1113,1.1136,1.1121,1.1156,1.1138,1.115,1.1157,1.1158,1.1162,1.1145,1.1177,1.1227,1.1233,1.1165,1.1165,1.1164,0,1.0982,1.101,1.1035,1.1043,1.1061,1.1073,1.1082,1.1096,1.1108,1.1125,1.1134,1.1153,1.1164,1.1181,1.1187,1.1175,1.1222,1.1207,1.1228,1.1228,1.1238,1.1238,1.1293,1.1243,1.1243,1.1243,1.1243,0,1.1015,1.1036,1.1046,1.1061,1.1086,1.109,1.1116,1.1124,1.1138,1.1156,1.1155,1.1173,1.118,1.12,1.1205,1.1235,1.1239,1.1245,1.1246,1.1246,1.1245,1.1254,1.1252,1.1245,1.1244,1.1244,1.1244,0,1.1044,1.105,1.1078,1.1095,1.1099,1.1118,1.1133,1.1149,1.1156,1.118,1.1186,1.1198,1.1222,1.123,1.1258,1.1262,1.1298,1.1296,1.1293,1.1293,1.1315,1.1314,1.1379,1.1389,1.1331,1.1332,1.1332,0,1.1064,1.1081,1.1101,1.1113,1.1122,1.1142,1.1156,1.1161,1.1176,1.1197,1.1212,1.1236,1.1255,1.1294,1.1306,1.1329,1.1329,1.1351,1.1332,1.1333,1.1333,1.1332,1.1336,1.1354,1.1355,1.1355,1.1355,0,1.1102,1.1106,1.1124,1.1145,1.1161,1.1178,1.1194,1.1205,1.1214,1.1231,1.1256,1.1271,1.1302,1.1327,1.1351,1.1362,1.1362,1.1361,1.1368,1.1368,1.1367,1.1371,1.1304,1.136,1.1359,1.1359,1.1359,1.1358,1.1129,1.1145,1.1163,1.1185,1.1198,1.1215,1.1232,1.1243,1.1263,1.1289,1.1292,1.1319,1.1339,1.1372,1.1385,1.1408,1.1402,1.1411,1.1414,1.1416,1.1419,1.1362,1.1412,1.1412,1.1412,1.1412,1.1412,0,1.1168,1.118,1.1201,1.1225,1.1243,1.1241,1.126,1.1276,1.1301,1.1319,1.1339,1.137,1.1396,1.1411,1.1437,1.1454,1.1454,1.1461,1.146,1.1464,1.1421,1.1414,1.146,1.146,1.146,1.146,1.146,1.146,1.1191,1.122,1.1227,1.1264,1.1276,1.1303,1.1315,1.1331,1.1346,1.1381,1.1402,1.1413,1.1431,1.1459,1.1484,1.1488,1.1499,1.1506,1.151,1.1471,1.1466,1.1461,1.1455,1.1508,1.1508,1.1551,1.1551,1.1552]},{"header":{"parameterUnit":"m.s-1","parameterCategory":1,"la1":30.2991,"la2":30.254,"lo1":-89.0895,"lo2":-89.0444,"dy":0.0017,"dx":0.0017,"nx":28,"ny":28,"refTime":"2024-12-09T03:00:00:Z","depth":0,"parameterNumber":3,"parameterNumberName":"V-component_of_WINDS"},"data":[0,0,0,0,0,0,0,0,0,0,0,0,0,0,0,0,0,0,0,0,0,0,0,0,0,0,0,0,0,0,0,0,0,0,0,0,0,0,0,0,0,0,0,0,0,0,0,0,0,0,0,0,0,0,0,0,0,0,3.9868,3.987,0,3.9989,3.999,3.9991,3.9982,3.9981,3.9979,3.9977,4.0101,4.0106,4.0111,0,0,0,0,0,0,0,0,0,0,0,0,0,3.9632,3.9637,3.9868,3.987,3.9871,3.9988,3.999,3.9992,3.9983,3.9981,3.9978,3.9976,4.0099,4.0105,4.0111,0,0,0,0,0,0,0,0,0,0,0,0,0,3.9742,3.9638,3.9868,3.9881,3.9883,3.9988,3.999,3.9992,3.9983,3.9981,3.9978,3.9975,4.0097,4.0105,4.0112,4.0212,0,0,4.0135,4.0138,0,0,0,0,0,0,0,0,3.9736,3.9751,3.9877,3.988,3.9883,3.9968,3.9952,4.0066,3.9984,3.9945,3.9977,3.9974,4.0059,4.0069,4.0098,4.0218,4.0223,4.0135,4.014,4.0143,4.0145,0,0,0,0,0,0,0,3.9728,3.9745,3.9916,3.9879,3.9883,3.9881,3.9894,3.9974,4.0016,3.9948,3.9948,3.9962,4.006,4.0091,4.0101,4.0225,4.0135,4.0142,4.0146,4.0149,4.0437,4.044,0,0,0,0,0,0,3.9717,3.9739,3.9912,3.9919,3.9801,3.9888,3.9902,3.9943,4.0015,4.0023,3.9965,3.9962,4.0079,4.0092,4.0105,4.023,4.0143,4.015,4.0154,4.0434,4.0438,4.0441,0,0,0,0,0,0,3.9712,3.9733,3.9907,3.9829,3.9851,3.9895,3.9941,3.9947,3.9978,4.0027,4.0035,3.9988,4.0078,4.0095,4.0186,4.0234,4.0153,4.016,4.043,4.0435,4.044,4.0479,0,0,0,0,0,0,3.9706,3.9731,3.9769,3.983,3.9856,3.9986,3.9944,3.9951,3.9991,3.9988,4.0051,4.0059,4.0077,4.0175,4.0194,4.0243,4.0166,4.0426,4.0432,4.0438,4.0474,4.0485,4.0494,0,0,0,0,0,3.9697,3.9775,3.9771,3.9792,3.9904,3.9989,4.0003,4.0022,3.9995,4.0034,4.0066,4.0057,4.0225,4.0185,4.0206,4.0258,4.0423,4.0431,4.0438,4.0469,4.0483,4.0494,0,0,0,0,0,0,3.9717,3.9783,3.978,3.9879,3.9928,3.9987,4.0037,4.0035,4.0093,4.0088,4.0108,4.0123,4.0216,4.0245,4.0199,4.036,4.0321,4.0333,4.0338,4.0351,4.0361,4.0353,4.0172,0,0,0,0,0,3.9733,3.9797,3.985,3.9933,3.9958,3.9993,4.0031,4.0041,4.0093,4.0114,4.0153,4.0204,4.0269,4.0311,4.0373,4.0477,4.0493,4.0524,4.0534,4.0542,4.0552,4.0613,4.0629,4.0465,4.0465,4.0465,0,0,3.9767,3.9811,3.9849,3.9938,3.9978,4.0044,4.0011,4.0081,4.0132,4.0125,4.0215,4.0245,4.0304,4.0404,4.0449,4.0431,4.0601,4.0551,4.0557,4.0563,4.0622,4.0638,4.0652,4.047,4.0469,4.0468,0,0,3.9863,3.9901,3.9976,4.0017,4.0078,4.0101,4.0119,4.0179,4.0199,4.0289,4.0287,4.0346,4.0456,4.05,4.0536,4.0651,4.0647,4.067,4.0724,4.0783,4.0796,4.0808,4.0853,4.0868,4.068,4.068,4.068,0,3.9898,3.9997,4.0014,4.0087,4.0128,4.0125,4.0202,4.0241,4.0319,4.0347,4.0325,4.0466,4.0505,4.0616,4.0645,4.0673,4.0696,4.0664,4.0793,4.0805,4.0816,4.0859,4.0875,4.0683,4.0683,4.0683,4.0682,0,4.0038,4.0108,4.0161,4.0238,4.0283,4.0358,4.0388,4.0432,4.0439,4.0465,4.0559,4.0606,4.0679,4.0705,4.0711,4.0819,4.0806,4.0788,4.075,4.0834,4.0875,4.0891,4.0687,4.0686,4.0685,4.0685,0,0,4.0151,4.0238,4.0257,4.0294,4.0361,4.0416,4.0491,4.0563,4.0602,4.0656,4.0721,4.0815,4.0801,4.0842,4.0853,4.0904,4.0997,4.0881,4.0883,4.0904,4.1122,4.1138,4.1156,4.0993,4.0996,4.0999,4.1119,0,4.0257,4.039,4.0409,4.0528,4.0594,4.0593,4.0659,4.0708,4.0735,4.0795,4.0824,4.0892,4.0865,4.0891,4.0941,4.0975,4.1042,4.0966,4.1057,4.106,4.1045,4.1177,4.1193,4.1303,4.1134,4.1137,4.1139,0,4.0398,4.0458,4.0583,4.0645,4.0673,4.0732,4.0802,4.0858,4.0915,4.0931,4.0978,4.0984,4.1063,4.1019,4.1131,4.1079,4.1117,4.1139,4.1144,4.1156,4.1107,4.1195,4.1339,4.1357,4.1163,4.1161,4.1159,0,4.0472,4.0583,4.0674,4.0704,4.0778,4.082,4.0852,4.0906,4.0949,4.101,4.1038,4.1106,4.1145,4.1198,4.1223,4.1188,4.1334,4.1291,4.1351,4.1351,4.1384,4.1383,4.1539,4.1403,4.1403,4.1403,4.1402,0,4.059,4.0668,4.0709,4.0765,4.0853,4.0874,4.096,4.0991,4.104,4.1103,4.1105,4.1164,4.1191,4.1255,4.1274,4.1366,4.1382,4.1399,4.1403,4.1401,4.1399,4.1428,4.1422,4.1407,4.1406,4.1405,4.1404,0,4.0689,4.0719,4.0818,4.088,4.0898,4.096,4.1013,4.1069,4.1095,4.1175,4.1195,4.1236,4.1312,4.1341,4.1432,4.1445,4.1552,4.1549,4.1534,4.1536,4.1596,4.1591,4.1779,4.1807,4.1649,4.1651,4.1652,0,4.0764,4.0824,4.0893,4.0936,4.097,4.1038,4.1083,4.1106,4.1153,4.1224,4.1271,4.1346,4.1408,4.1529,4.1568,4.1639,4.164,4.1701,4.165,4.1647,4.1645,4.1643,4.165,4.1711,4.1713,4.1714,4.1715,0,4.0895,4.0908,4.0972,4.1043,4.1096,4.1153,4.1207,4.1242,4.1274,4.1326,4.1404,4.1452,4.1547,4.1623,4.1696,4.173,4.173,4.173,4.1749,4.1748,4.1738,4.1748,4.1563,4.1726,4.1725,4.1724,4.1724,4.1723,4.0987,4.1042,4.11,4.1172,4.1216,4.1268,4.1324,4.1358,4.1424,4.1503,4.1513,4.1597,4.1655,4.1753,4.1791,4.1858,4.1842,4.1867,4.1875,4.1882,4.1888,4.1725,4.1871,4.187,4.187,4.187,4.187,0,4.1121,4.1159,4.1225,4.1303,4.1361,4.1354,4.1415,4.1464,4.1539,4.1592,4.1654,4.1745,4.1819,4.1864,4.1939,4.1984,4.1986,4.2004,4.2002,4.2011,4.1896,4.1874,4.2001,4.2001,4.2001,4.2001,4.2001,4.2001,4.1198,4.1292,4.1312,4.1428,4.1465,4.1549,4.1585,4.1634,4.1677,4.1779,4.1841,4.187,4.1921,4.2,4.2069,4.208,4.2109,4.2129,4.2139,4.2032,4.2018,4.2006,4.1986,4.2134,4.2134,4.2249,4.225,4.2251]}]]